sat.trackr.live / text

‹ back to catalog

UNKNOWN

NORAD 82402

UNKNOWN UNKNOWN UNKNOWN

§ Identity

Operator
Country
Launch date
Launch site
Launch vehicle
Mass (kg)
RCS (m²)

External: N2YO · Heavens-Above

§ Orbital elements

Epoch: 2026-09-18T08:45:32.738400Z

Period
95.58 min
Inclination
86.6514°
Eccentricity
0.0010389
Mean motion
15.06641284 rev/d
Perigee alt
539.3 km
Apogee alt
553.7 km
Semi-major
6,924.6 km
B*
2.6954e-4
RAAN
34.3028°
Arg perigee
228.7616°
Mean anomaly
131.2725°
Rev number
49,653

§ Raw data

UNKNOWN1 82402U          26261.36496225  .00004030  00000+0  26954-3 0  99952 82402  86.6514  34.3028 0010389 228.7616 131.2725 15.06641284496536

JSON: /api/v1/satellites/82402 · /tle

For live sub-satellite position, see the globe view (requires WebGL).

§ Visibility from observer

Set your observer location to see the next 7 days of passes ≥ 10°. The values pass through the URL so the page stays shareable.

No JS? Fill the form by hand. The geolocation button needs JavaScript.